This is the latest recevied weather packets stored in our database for station/object N7SWJ. If no packets are shown the sender has not sent any weather packets the latest 10 day(s).
| Time | Temp. | Humidity | Pressure | Rain* | Wind** | Luminosity | Snow |
|---|---|---|---|---|---|---|---|
| 1777496101 | 16.67° C | 31% | 1018.8 hPa | 0 mm | - | 241 W/m² | - |
| 1777495797 | 17.78° C | 31% | 1018.9 hPa | 0 mm | - | 253 W/m² | - |
| 1777495493 | 17.78° C | 30% | 1018.9 hPa | 0 mm | - | 239 W/m² | - |
| 1777495189 | 18.33° C | 29% | 1019 hPa | 0 mm | - | 253 W/m² | - |
| 1777494887 | 19.44° C | 28% | 1019 hPa | 0 mm | - | 315 W/m² | - |
| 1777494583 | 19.44° C | 28% | 1018.8 hPa | 0 mm | - | 844 W/m² | - |
| 1777494281 | 19.44° C | 28% | 1018.8 hPa | 0 mm | - | 850 W/m² | - |
| 1777493977 | 17.78° C | 29% | 1018.8 hPa | 0 mm | - | 755 W/m² | - |
| 1777493676 | 17.22° C | 29% | 1019.2 hPa | 0 mm | - | 736 W/m² | - |
| 1777493373 | 17.78° C | 30% | 1019 hPa | 0 mm | - | 740 W/m² | - |
| 1777493069 | 18.89° C | 29% | 1018.9 hPa | 0 mm | - | 745 W/m² | - |
| 1777492766 | 18.89° C | 30% | 1019 hPa | 0 mm | - | 746 W/m² | - |
| 1777492461 | 18.33° C | 30% | 1019.2 hPa | 0 mm | - | 762 W/m² | - |
| 1777492158 | 17.78° C | 30% | 1019.2 hPa | 0 mm | - | 773 W/m² | - |
| 1777491855 | 17.22° C | 33% | 1019.3 hPa | 0 mm | - | 761 W/m² | - |
| 1777491552 | 16.67° C | 32% | 1019.5 hPa | 0 mm | - | 739 W/m² | - |
| 1777491250 | 15.56° C | 35% | 1019.6 hPa | 0 mm | - | 737 W/m² | - |
| 1777490945 | 15° C | 35% | 1019.6 hPa | 0 mm | - | 443 W/m² | - |
| 1777490641 | 15° C | 35% | 1019.7 hPa | 0 mm | - | 299 W/m² | - |
| 1777490337 | 15.56° C | 35% | 1019.9 hPa | 0 mm | - | 269 W/m² | - |
| 1777490035 | 15.56° C | 34% | 1019.9 hPa | 0 mm | - | 352 W/m² | - |
| 1777489732 | 16.67° C | 32% | 1019.8 hPa | 0 mm | - | 351 W/m² | - |
| 1777489430 | 16.67° C | 33% | 1019.9 hPa | 0 mm | - | 661 W/m² | - |
| 1777489127 | 16.67° C | 34% | 1019.9 hPa | 0 mm | - | 625 W/m² | - |
| 1777488824 | 16.11° C | 35% | 1019.9 hPa | 0 mm | - | 761 W/m² | - |
* Rain latest hour (hover to see other rain measurements)
** Current wind speed in m/s (hover to see current wind gust speed)